Wind_Speed
7 9 9 10 10 11 11 8 7 6 6 9 9 10 11 11 7 7 7 7 6 4 4 6 6 6 6 7 2 6 6 4 5 3 1 5 11 16 17 22 26 24 21 21 22 22 21 19 19 19 20 19 20 20 19 19 19 18 18 17 16 15 15 15 16 15 15 15 15 15 14 13 13 13 13 14 13 13 13 12 11 10 10 10 10 9 8 9 11 12 12 12 11 11 10 10 9
7 9 9 9 10 10 7 5 7 7 8 10 9 10 11 11 9 7 9 9 5 6 4 6 6 6 3 4 3 7 6 8 7 5 5 11 14 14 20 25 24 23 22 21 22 22 21 20 20 20 20 20 20 20 19 19 19 19 18 18 17 15 15 15 15 15 15 15 15 14 14 13 12 13 12 13 14 14 13 12 10 9 9 9 10 8 7 8 10 10 10 9 9 10 9 8 7
7 9 10 9 9 8 6 6 8 8 10 10 9 11 11 14 11 6 9 6 4 6 4 5 5 4 3 4 2 2 5 8 10 10 8 14 14 15 21 24 23 23 21 21 21 21 21 21 20 20 20 20 20 19 19 20 20 19 19 19 17 15 15 15 15 15 15 15 15 14 13 12 11 11 10 10 11 12 12 12 11 9 9 8 8 7 5 6 8 8 8 7 8 9 9 8 7
6 8 10 10 7 7 7 7 9 9 10 10 9 11 12 13 9 7 9 5 7 2 5 6 3 0 7 6 2 4 6 4 7 9 8 13 14 17 23 23 23 22 21 21 20 21 22 21 21 20 21 21 20 20 21 21 20 20 20 19 17 15 14 15 15 15 15 15 14 13 12 11 9 9 8 7 7 7 8 10 11 10 10 9 8 7 5 5 7 7 6 6 7 8 8 8 7
7 10 10 10 6 5 6 6 8 10 11 10 9 12 14 14 9 5 3 6 3 5 5 7 5 2 3 5 2 2 7 6 7 9 10 15 18 22 23 23 22 22 21 20 19 21 23 21 21 21 22 21 20 22 22 20 20 20 19 18 16 15 14 14 15 14 15 15 13 12 11 9 8 7 7 7 6 6 5 7 10 11 11 10 10 9 7 6 6 5 4 5 6 7 8 8 7
9 10 10 10 7 5 7 8 10 10 12 11 11 13 14 15 9 4 3 4 6 5 7 8 7 4 2 3 7 5 5 7 8 9 12 19 22 24 24 22 22 22 22 20 19 22 23 22 21 22 22 21 21 23 23 20 19 19 19 18 16 15 15 15 15 14 15 14 13 12 10 9 8 8 8 9 8 7 6 6 6 9 11 10 10 9 7 6 5 4 4 6 6 7 8 7 7
11 9 8 8 6 6 9 11 12 11 13 15 14 15 18 19 7 4 6 8 7 5 7 8 8 7 2 6 7 8 5 5 8 10 16 23 25 26 24 21 22 22 22 20 19 22 23 22 22 22 22 21 22 24 23 20 19 18 18 17 16 15 15 15 14 14 14 13 12 11 10 9 8 9 10 10 9 9 8 7 6 6 9 10 11 10 7 5 4 3 4 5 5 6 7 8 7
12 8 5 7 7 7 9 11 13 13 14 16 17 18 20 17 5 5 9 7 7 5 5 6 7 7 4 7 4 7 6 7 10 17 23 26 27 25 22 21 23 23 21 20 20 23 24 22 22 22 22 22 23 24 22 20 18 18 18 17 16 15 15 15 14 14 14 13 12 11 10 9 9 9 10 10 8 7 7 6 6 6 6 10 12 10 6 6 5 3 4 4 4 6 7 8 7
11 8 6 7 8 8 11 11 13 14 16 18 18 20 19 15 8 6 10 10 9 6 8 8 6 8 5 8 7 6 6 9 15 22 25 26 26 24 22 22 23 23 22 21 21 23 23 22 22 22 21 23 24 23 21 19 18 18 17 17 16 16 15 15 15 14 13 13 12 11 10 10 9 9 9 9 8 7 6 4 4 3 3 8 12 9 5 7 6 4 4 3 3 4 6 7 7
8 8 6 6 8 10 12 11 11 13 16 18 18 22 19 14 9 4 8 10 8 7 11 7 5 9 5 12 7 5 7 12 17 22 23 25 24 22 22 22 22 23 23 22 20 22 23 22 21 22 21 23 24 21 21 19 18 18 17 17 17 16 15 15 14 13 13 12 12 11 10 10 9 9 9 9 8 8 7 5 4 3 2 6 10 11 7 5 6 6 4 3 2 3 5 7 7
7 7 7 7 9 10 11 11 12 12 15 17 16 18 16 12 6 4 8 9 8 9 8 4 5 10 6 12 5 6 11 14 18 22 23 24 23 22 22 21 21 22 22 22 20 21 22 21 20 21 22 23 23 21 21 19 19 18 17 17 16 16 15 15 14 12 12 12 11 11 10 10 10 10 10 10 9 8 8 7 5 4 2 5 9 11 8 3 5 6 4 3 1 2 4 5 6
7 7 7 8 9 10 11 12 13 13 14 15 13 12 12 10 6 7 12 10 10 10 8 6 6 10 9 11 5 9 13 14 18 23 23 22 22 22 22 22 22 21 21 22 21 21 22 21 19 19 21 23 22 21 21 20 19 18 17 17 16 15 14 14 13 12 12 11 11 11 10 10 10 10 9 9 9 7 7 8 7 6 4 3 7 9 7 3 4 6 4 2 1 1 3 4 4
8 8 8 9 9 10 12 12 11 13 12 10 9 9 7 7 9 9 10 11 12 11 10 9 7 7 6 10 8 10 13 17 20 22 22 22 22 21 21 22 22 21 21 21 21 21 21 20 19 19 21 21 21 21 21 19 18 17 17 16 16 15 14 13 12 12 11 11 11 10 10 9 9 9 8 8 8 8 7 7 8 8 6 4 5 7 7 6 6 6 5 3 2 1 1 2 3
8 8 7 8 9 11 12 11 11 10 8 10 8 4 3 5 8 8 9 11 12 12 11 9 9 6 6 9 8 9 13 20 23 22 22 21 21 21 21 21 21 20 20 20 20 21 20 19 19 19 20 19 18 19 19 19 18 16 16 15 15 14 14 13 12 12 10 10 10 9 8 7 7 7 7 6 7 8 7 6 7 7 6 5 4 4 6 7 7 6 5 4 3 2 2 2 3
9 7 7 8 9 11 11 10 12 10 8 10 3 6 3 6 5 6 8 10 10 9 8 8 11 8 8 10 8 10 18 23 23 22 22 21 21 20 20 20 19 19 19 19 20 20 19 19 19 19 19 17 16 16 16 17 18 16 16 15 14 14 13 12 12 11 10 10 8 8 6 6 6 6 6 6 5 5 7 5 4 6 5 4 4 3 4 6 6 7 6 5 5 4 3 3 3
8 7 7 8 10 11 10 10 11 11 10 2 6 6 4 6 6 7 7 8 9 7 8 11 10 8 9 11 12 18 24 25 23 22 22 22 21 21 20 20 19 19 18 18 18 18 19 19 19 18 17 17 16 15 15 16 17 16 15 14 14 14 13 12 11 10 9 8 7 6 6 7 6 6 7 7 5 4 4 2 2 4 4 4 4 4 4 5 6 6 6 6 6 6 5 5 4
6 8 8 8 11 12 10 10 9 11 8 4 6 5 5 6 7 6 6 7 10 9 9 9 8 9 6 4 20 29 29 26 24 24 23 22 22 21 20 20 19 18 18 17 17 18 19 19 19 18 17 16 15 16 16 15 16 16 14 14 14 13 12 11 10 9 8 7 6 6 6 7 5 5 6 4 4 4 2 1 1 2 2 2 3 3 4 5 6 7 7 7 7 7 7 7 7
7 7 9 9 10 11 11 12 10 9 6 6 6 5 5 7 4 4 6 8 11 11 9 8 8 7 8 13 25 32 31 28 25 25 23 22 21 20 20 19 19 19 19 18 17 18 19 19 18 18 17 16 16 16 16 16 16 15 13 13 13 12 12 11 9 9 8 7 6 6 6 6 5 4 3 1 3 2 2 2 2 2 1 1 1 2 3 5 6 7 8 8 8 8 8 8 10
9 7 9 10 10 12 12 12 7 6 7 3 5 4 6 6 2 2 5 9 12 12 11 12 12 11 18 19 22 26 29 29 25 24 23 22 21 21 20 19 19 18 18 18 18 19 18 18 18 18 17 16 16 15 14 16 16 15 14 13 12 12 11 11 10 10 9 8 7 6 5 4 4 3 2 3 3 2 1 3 1 1 2 2 2 3 3 4 6 7 8 10 10 10 10 10 11
10 9 9 10 12 14 9 8 6 3 6 3 5 4 5 6 4 3 6 9 11 12 12 13 14 13 17 17 19 22 26 27 25 24 23 22 21 21 20 20 19 19 19 19 19 18 18 18 18 18 17 16 15 14 14 16 15 15 15 13 13 13 12 11 11 9 8 7 6 5 5 4 4 3 2 2 3 4 3 2 1 1 1 1 3 4 4 4 5 6 7 8 10 12 12 12 12
9 10 11 10 12 13 7 6 8 6 5 7 7 4 6 7 5 5 7 9 8 11 12 13 14 15 18 18 19 21 23 24 24 24 23 21 21 21 21 21 19 19 20 19 19 19 18 18 18 18 17 16 14 14 14 15 15 14 14 13 13 12 11 10 9 8 7 7 6 5 5 4 4 3 3 2 2 4 3 2 2 1 2 3 4 4 7 7 6 7 8 7 8 11 12 12 12
9 12 14 14 11 10 6 5 7 7 6 8 8 8 8 5 4 7 9 9 7 8 12 13 14 16 19 19 18 19 20 21 22 22 22 22 22 21 20 21 19 19 20 19 20 20 18 18 19 18 17 15 14 14 14 14 14 14 14 13 13 12 11 10 9 8 7 7 6 5 4 5 4 4 3 2 2 2 2 3 3 2 3 6 5 5 7 7 7 8 9 9 9 10 11 11 12
10 11 14 16 13 9 7 5 4 6 8 9 9 10 9 6 7 9 9 10 9 5 10 14 15 17 19 19 18 19 20 19 19 21 22 21 21 21 20 20 19 19 19 19 20 19 19 18 18 18 16 15 14 14 14 14 14 13 13 13 12 12 11 10 9 8 8 7 6 5 5 5 5 4 3 3 2 2 2 2 4 4 5 6 5 6 6 6 7 7 7 8 9 10 11 12 12
12 11 12 15 16 13 8 5 5 6 9 10 9 9 9 9 9 8 8 11 10 5 4 10 12 16 19 19 18 19 19 19 19 21 20 20 21 21 20 19 19 19 18 18 19 19 19 19 18 18 16 16 15 14 14 13 13 12 12 12 11 11 11 10 9 8 8 8 7 6 6 5 4 3 3 2 2 2 3 3 5 5 5 7 7 7 7 8 8 7 9 9 10 12 12 13 13
15 14 12 12 14 14 10 8 8 8 9 9 10 11 12 11 10 9 8 9 9 4 3 8 12 16 18 18 18 18 18 19 20 21 20 19 20 20 18 18 18 18 18 18 19 19 19 19 18 17 17 16 15 15 13 13 13 13 13 12 11 12 11 10 10 9 9 8 8 7 5 5 4 3 3 2 2 2 3 4 5 5 5 7 8 7 6 8 8 8 10 10 12 13 13 13 14
13 16 15 11 11 11 11 12 12 11 9 9 12 14 13 13 11 10 11 10 9 9 8 9 13 15 16 16 16 16 18 19 19 20 20 20 20 20 17 18 18 18 19 18 18 18 19 19 17 17 17 16 15 15 13 13 13 13 13 12 12 13 11 11 11 10 9 9 8 7 5 5 3 2 2 2 3 3 3 4 5 5 5 5 6 7 7 7 8 9 10 11 13 14 14 15 15
9 14 17 16 12 10 11 12 13 12 11 12 13 13 14 13 10 9 12 10 8 11 13 13 14 15 15 15 15 15 17 18 19 19 19 19 19 20 19 19 19 19 19 18 18 18 18 18 17 17 16 15 15 14 13 13 13 13 13 12 13 13 11 11 11 10 9 8 8 7 6 5 3 2 2 2 3 3 3 4 4 4 4 4 6 6 7 8 9 10 10 11 12 13 14 15 15
8 9 14 18 15 11 12 13 12 11 10 14 13 13 14 13 10 10 8 10 10 12 14 15 15 15 15 15 15 13 14 18 20 19 17 17 18 20 20 20 20 20 20 19 18 19 19 18 18 17 16 15 15 14 13 13 13 13 13 13 13 13 12 12 11 9 9 8 8 7 6 5 4 3 2 2 3 3 3 3 4 4 4 4 5 7 7 8 9 10 11 11 12 13 13 14 15
11 9 11 15 16 14 15 14 13 11 10 13 12 13 14 13 14 12 8 11 12 13 14 14 14 14 14 14 14 12 13 17 18 17 18 18 19 21 20 20 21 21 20 20 19 19 19 19 18 16 16 15 14 13 13 13 13 13 13 13 13 13 13 12 10 9 9 8 8 7 5 4 3 3 2 2 3 3 4 4 4 4 4 4 6 7 8 8 9 10 10 11 12 12 13 14 14
12 11 9 11 13 14 17 16 14 14 12 12 13 10 11 16 17 8 6 9 14 13 13 13 12 12 13 13 13 13 14 16 16 18 20 20 19 20 20 20 21 21 20 19 20 20 19 18 17 16 15 15 14 13 13 13 13 13 13 13 14 13 13 11 11 10 9 8 7 6 5 4 2 2 1 1 2 3 5 5 4 4 3 5 6 7 8 8 8 9 10 11 11 11 13 13 14
11 12 9 9 9 10 16 17 16 16 12 14 14 9 10 15 13 13 8 4 10 12 12 11 11 12 13 13 13 14 15 16 17 19 20 20 20 20 20 21 21 20 20 20 20 20 18 17 16 15 15 14 14 13 13 13 13 13 13 13 14 13 13 12 11 10 9 8 7 6 5 3 2 1 0 1 2 3 4 5 4 4 4 5 6 7 8 9 9 10 10 11 11 12 13 13 14
10 11 9 10 9 10 15 18 18 17 13 15 14 10 10 7 13 18 11 6 7 10 12 12 13 13 13 13 12 13 13 15 18 20 20 21 21 20 20 21 22 21 20 20 20 20 18 16 16 15 15 15 14 13 13 13 13 13 12 12 13 13 12 10 10 9 8 7 6 6 5 4 2 1 1 1 2 3 4 5 4 5 5 6 7 8 9 10 10 10 11 11 13 14 14 14 15
10 10 9 11 11 11 11 16 18 18 14 16 16 13 7 7 12 14 15 12 11 11 12 13 13 13 13 12 12 11 12 14 16 19 21 22 22 22 21 20 21 20 19 20 20 19 17 16 15 15 16 15 14 14 13 13 13 12 12 12 12 12 10 9 9 9 8 7 6 6 5 4 3 1 0 1 2 4 4 5 5 5 6 7 7 9 10 10 10 11 12 12 13 15 16 16 16
9 10 10 11 14 13 9 13 16 19 17 16 18 16 5 11 11 10 11 12 13 11 11 12 12 13 13 11 11 10 11 14 14 18 21 19 19 21 21 20 18 18 19 19 19 18 17 16 16 16 16 15 14 14 13 12 11 10 10 10 10 9 8 9 9 8 8 7 7 7 5 4 2 1 1 2 3 4 5 5 6 6 7 7 8 9 10 10 11 11 12 13 13 14 16 17 17
11 11 10 10 13 15 11 12 14 19 19 15 18 18 7 12 10 9 10 11 11 11 10 12 13 12 12 10 9 6 8 9 10 15 17 15 16 17 17 20 18 17 19 19 18 17 17 16 15 16 15 13 13 12 11 10 9 9 8 8 8 9 9 9 9 8 8 8 7 7 5 4 2 2 2 3 4 5 5 6 7 8 8 8 9 10 10 10 11 12 13 14 14 15 15 16 17
13 13 12 12 10 13 13 10 14 19 17 14 16 17 11 12 11 10 9 9 10 11 11 11 11 11 10 8 7 5 2 2 3 7 10 8 9 10 12 16 17 16 16 18 17 16 15 15 15 14 11 10 11 11 11 11 9 8 9 9 9 10 9 9 9 8 8 8 7 6 5 4 3 3 3 4 4 5 6 7 7 8 9 9 10 10 11 12 13 14 15 15 16 16 16 16 16
14 13 13 14 10 12 14 8 13 17 14 14 16 17 16 13 13 13 10 10 12 13 14 12 12 11 9 10 11 11 8 4 7 17 18 12 9 7 7 9 11 11 10 12 13 13 12 12 12 11 9 9 10 11 11 11 10 8 9 11 12 10 10 9 9 9 8 8 7 6 6 4 4 4 4 4 5 5 6 7 7 8 8 9 10 11 12 13 14 15 15 16 16 17 17 16 16
12 12 12 14 10 11 13 8 11 15 11 13 16 16 18 14 13 14 14 14 12 12 13 12 13 12 9 11 12 13 12 6 6 14 19 16 12 13 13 12 12 9 6 7 8 9 9 10 11 10 10 10 11 11 10 10 8 9 11 13 13 10 9 10 10 9 9 9 8 6 5 4 4 4 4 4 4 5 5 6 7 8 8 9 10 11 12 13 14 14 15 16 16 16 17 17 17
9 10 10 11 10 12 13 11 11 13 9 11 16 15 15 12 13 13 13 12 11 12 11 11 12 12 10 11 11 13 14 11 9 10 14 16 14 15 17 18 17 14 12 9 7 8 8 11 12 11 11 11 11 11 11 10 7 11 14 12 10 8 9 10 10 9 10 9 8 6 5 5 4 4 4 4 4 4 5 6 7 7 8 9 10 11 11 12 13 13 14 15 16 17 17 17 16
9 10 9 10 12 12 9 10 11 13 10 12 15 14 12 10 13 14 13 12 11 11 11 12 12 11 11 10 9 11 14 13 12 12 14 15 14 13 15 17 19 21 19 12 9 9 8 11 11 9 10 10 10 10 9 9 7 10 12 9 9 11 11 11 10 9 8 7 6 5 5 5 4 3 3 4 4 5 5 6 7 7 8 9 10 10 11 12 12 13 14 15 16 16 17 17 17
11 12 10 10 13 11 7 9 12 12 14 15 13 11 9 10 13 12 14 16 15 13 14 13 12 11 11 12 11 10 12 13 14 15 15 16 16 16 16 15 13 16 16 12 11 10 9 11 11 9 9 9 10 11 10 10 7 9 10 10 11 12 11 10 9 8 7 6 6 5 5 4 4 3 3 4 4 5 5 6 6 7 8 8 9 10 10 12 12 13 14 14 15 15 16 18 17
11 13 12 13 13 12 9 11 13 10 12 14 12 9 8 11 12 9 10 13 14 14 14 14 12 11 11 12 13 11 10 11 12 15 15 14 16 19 20 17 13 14 15 14 12 9 8 11 12 11 10 9 11 12 12 13 10 12 10 10 10 10 10 9 8 7 7 6 5 5 4 4 4 3 3 4 4 4 5 5 6 6 7 8 9 9 10 11 12 13 13 14 15 16 16 17 17
9 12 14 15 12 14 12 12 12 8 9 13 13 10 7 9 12 12 11 10 11 11 11 11 10 10 10 10 12 12 11 11 11 13 14 12 16 21 21 20 18 18 17 15 13 10 10 11 12 12 10 12 14 13 12 14 12 15 10 8 8 9 9 9 7 7 6 5 5 4 4 4 3 4 3 4 4 5 5 5 6 7 7 8 8 9 10 11 12 13 14 14 15 16 15 15 16
7 12 16 13 10 12 13 12 11 8 8 12 15 14 9 7 12 14 14 9 9 10 10 9 8 7 9 10 11 12 13 13 12 13 14 13 15 19 22 21 19 18 17 16 14 11 13 13 11 10 9 11 14 13 12 12 12 14 8 8 8 8 9 9 7 5 5 4 4 4 4 4 3 4 4 4 5 5 6 6 6 7 8 8 8 9 10 11 13 13 14 15 16 16 15 14 15
8 13 17 11 6 9 11 10 10 9 9 10 15 16 11 7 10 13 15 13 13 13 13 12 11 8 8 9 11 13 14 14 13 13 13 13 15 17 20 20 17 17 17 17 14 11 12 12 9 9 8 8 10 11 9 10 11 9 7 9 9 9 8 7 6 5 5 4 3 4 3 4 3 4 4 5 6 6 6 6 7 7 8 8 9 10 11 12 13 13 14 16 16 16 15 14 14
8 10 16 12 8 9 9 8 9 10 10 10 13 15 10 7 9 12 14 16 16 14 13 14 15 14 13 12 12 12 14 13 12 13 13 14 16 17 18 18 17 18 18 16 16 14 9 8 9 8 8 8 9 10 8 8 8 7 8 9 9 8 7 6 6 5 5 4 4 3 3 4 4 4 5 6 7 7 7 7 7 8 8 9 9 10 11 12 12 13 14 16 16 16 15 14 13
7 7 12 12 10 9 8 7 8 9 9 11 15 16 14 10 8 11 12 13 16 15 13 13 15 16 15 13 12 12 12 12 12 13 14 16 18 19 20 20 18 18 18 15 18 18 11 11 15 11 8 10 10 11 10 7 8 9 9 9 8 6 6 6 6 5 4 4 4 3 4 4 5 5 5 6 7 8 7 7 8 8 8 9 9 10 10 11 12 13 14 15 16 16 15 15 13
9 7 11 10 9 9 7 7 8 9 9 11 16 18 16 12 7 10 12 14 15 16 16 16 15 14 12 10 10 11 11 11 12 12 14 16 16 17 20 21 20 19 19 15 15 16 12 13 17 14 11 11 11 13 12 8 8 10 9 9 6 5 6 6 6 6 5 4 4 3 4 4 5 5 5 6 7 8 8 8 8 8 9 9 9 10 10 11 12 13 13 14 16 15 16 17 14
11 9 11 10 9 8 8 9 9 9 8 10 16 18 14 11 10 10 12 14 15 14 16 19 20 17 14 13 11 10 10 10 11 11 13 13 13 15 18 21 22 21 19 17 16 17 16 14 14 14 14 13 13 14 11 9 9 9 9 8 6 6 7 7 7 6 5 5 4 4 5 5 5 5 6 7 8 8 8 8 8 8 9 9 9 10 11 11 12 13 13 14 15 15 17 17 16
12 11 11 10 9 9 10 9 8 9 8 10 16 17 12 9 10 11 12 13 14 15 14 17 22 21 18 17 14 11 10 10 11 12 13 13 14 16 19 21 23 22 20 19 19 20 22 20 18 18 18 15 14 13 11 10 9 8 8 7 7 8 8 8 8 7 5 5 5 6 6 6 6 6 7 7 8 8 8 8 8 8 9 9 10 10 11 11 12 13 14 15 16 16 18 18 17
13 11 11 10 9 8 8 8 8 9 9 10 12 13 11 8 6 8 12 11 12 14 15 15 18 20 17 16 15 13 12 11 12 13 13 14 16 18 19 20 23 25 23 22 20 20 22 23 22 21 20 17 13 11 11 11 9 8 7 8 8 9 9 8 7 7 6 6 7 7 7 6 6 7 7 7 7 8 8 8 8 9 10 10 10 11 11 11 12 14 14 15 16 16 17 18 18
11 10 11 10 10 8 7 7 6 5 8 10 8 8 9 6 3 2 9 11 8 9 11 11 16 18 16 14 15 15 13 13 13 13 13 15 17 19 19 19 22 25 25 23 21 20 21 21 21 19 18 16 14 12 12 11 9 8 8 8 9 9 10 9 8 7 7 8 8 8 8 7 7 7 7 7 8 8 9 9 9 10 11 10 11 12 12 12 13 14 14 14 15 15 15 17 17
9 11 11 10 11 10 8 8 3 3 8 9 7 7 8 7 4 3 7 10 10 9 8 10 16 18 17 14 14 14 13 13 13 13 13 14 16 17 18 18 20 23 23 22 21 20 20 19 19 18 17 15 14 12 12 10 9 9 9 10 10 10 10 9 9 9 9 9 9 8 9 9 8 7 7 8 9 9 9 10 10 11 12 11 11 12 12 13 13 13 13 14 16 15 14 16 17
9 10 11 9 11 11 8 8 6 6 9 8 10 12 10 10 8 8 12 13 13 13 12 12 15 15 13 13 15 15 14 14 14 15 14 14 15 17 17 18 19 21 23 22 21 20 20 19 19 18 16 15 13 12 11 10 10 10 10 11 11 10 10 9 10 10 10 9 9 9 9 9 8 8 8 9 9 10 10 11 11 12 13 12 12 13 12 13 13 13 13 14 15 16 15 16 17
12 9 11 9 9 10 8 8 8 10 9 8 12 15 11 11 8 10 15 15 14 15 15 15 16 15 13 14 16 17 17 15 15 16 15 13 14 17 18 19 19 20 22 22 21 21 21 20 18 17 15 14 12 11 11 10 10 10 11 11 11 10 10 10 10 10 10 10 10 10 9 9 9 9 10 10 10 11 11 11 12 12 12 12 12 13 13 13 13 13 14 15 16 17 16 16 18
14 10 12 10 7 7 8 8 7 9 9 8 12 13 9 10 9 12 16 15 16 16 14 15 16 18 16 15 17 17 16 16 14 15 15 12 15 19 19 19 19 20 21 22 21 21 21 20 19 17 14 13 11 10 10 10 10 10 11 11 10 10 10 11 11 11 10 11 11 10 10 10 10 10 11 11 11 11 11 11 11 11 12 12 13 13 13 13 14 14 15 15 16 17 17 16 18
11 9 12 11 7 7 8 8 7 8 8 7 9 10 8 7 8 12 15 15 15 15 15 14 14 17 17 16 16 16 16 16 15 15 15 14 16 19 19 19 20 22 22 22 22 21 20 19 18 16 14 13 11 10 10 9 10 10 10 10 10 10 11 11 11 11 11 12 11 10 10 10 11 11 11 11 11 11 11 11 11 11 12 12 12 13 13 13 14 15 15 15 15 17 17 17 17
12 8 10 11 9 8 9 9 9 8 8 8 7 8 7 6 7 10 12 13 14 15 15 13 13 16 16 15 16 17 16 16 15 15 15 14 17 20 21 21 22 22 21 22 22 21 20 18 17 16 14 13 11 10 9 9 10 10 10 10 11 12 12 12 12 12 12 12 11 10 10 10 11 12 12 11 10 10 10 10 10 11 12 12 12 13 13 14 14 15 15 14 15 16 17 17 18
Wind_Direction
316 308 300 295 287 286 284 276 272 265 255 259 260 262 262 255 252 272 272 275 270 123 53 349 344 331 321 320 21 89 66 12 358 347 76 113 138 143 138 129 127 131 136 133 132 132 130 132 131 137 140 135 134 133 133 133 133 131 132 132 133 134 135 135 133 132 126 123 120 118 115 113 113 112 110 107 104 100 100 100 100 100 97 99 97 93 98 104 102 95 92 93 93 87 81 79 77
302 293 279 274 273 275 284 283 274 274 268 265 260 260 266 259 238 237 249 264 287 72 29 346 346 324 331 313 237 153 102 50 66 95 99 130 139 136 129 124 127 135 139 135 132 130 130 134 135 141 142 138 133 132 135 137 138 135 136 136 138 139 139 138 134 131 126 124 121 118 118 116 117 117 117 115 116 115 112 108 102 100 97 98 98 98 104 106 101 94 93 94 90 81 72 68 64
291 287 271 258 254 253 272 276 263 266 265 262 261 255 253 255 248 250 264 276 34 48 342 325 322 305 284 245 233 147 102 67 91 105 113 140 143 141 134 125 129 136 139 136 132 131 131 135 139 144 144 140 133 132 134 136 138 136 137 139 140 141 140 139 134 131 127 125 122 120 119 118 118 117 118 120 125 128 128 124 117 113 107 103 100 104 110 107 104 94 91 99 90 74 62 55 55
279 275 266 263 257 242 251 255 253 259 259 259 263 262 260 260 257 263 281 351 44 358 292 310 302 356 309 293 80 80 101 88 106 114 131 146 146 147 139 127 133 141 142 137 132 131 132 135 140 145 144 140 135 134 134 134 135 134 137 139 142 141 140 140 134 132 128 125 123 121 118 116 115 114 116 119 125 130 138 141 138 137 131 127 118 120 122 98 96 92 93 108 90 66 54 49 51
266 258 250 256 264 257 256 252 253 251 251 260 261 260 263 265 270 274 340 26 354 284 287 296 293 143 288 309 18 129 132 136 134 123 133 139 141 145 141 134 139 145 143 138 131 131 131 134 139 144 144 140 138 136 134 133 133 134 138 140 142 142 142 139 134 132 129 126 124 120 117 112 111 112 109 105 107 113 125 143 149 151 147 143 139 137 133 111 99 98 115 114 84 59 49 49 54
249 246 233 239 259 276 263 251 250 251 251 257 263 266 270 273 297 345 353 315 273 276 284 279 277 258 190 62 44 58 115 126 133 130 134 137 141 142 141 141 146 146 139 134 130 132 131 132 139 144 144 141 139 137 136 134 135 136 138 140 141 144 144 138 135 133 129 127 124 119 113 108 106 104 98 93 93 95 96 112 137 154 156 150 148 142 127 121 124 127 126 107 76 56 47 49 54
241 242 217 221 247 252 246 249 251 255 253 253 259 266 269 271 310 359 274 274 266 244 257 269 263 263 143 119 79 61 53 88 130 137 136 138 140 141 144 148 146 141 134 128 128 133 131 131 138 143 144 142 139 138 136 135 137 139 139 141 142 145 143 139 136 133 130 126 123 117 109 105 102 98 94 90 88 90 89 93 99 128 156 157 154 140 125 143 159 153 122 100 76 57 44 43 50
240 249 229 220 232 227 233 246 249 253 254 256 259 261 265 270 321 339 282 277 266 249 232 246 250 252 150 146 105 71 55 69 114 125 132 137 139 143 147 148 141 139 136 129 129 132 129 130 137 143 144 142 140 138 136 137 140 142 141 141 143 145 143 140 138 136 132 127 121 112 107 101 96 95 97 96 94 93 94 100 101 105 140 159 157 140 145 188 189 169 139 109 77 55 41 41 48
228 233 240 237 239 235 237 243 246 250 252 254 258 261 265 273 290 283 275 270 257 264 254 239 229 238 155 114 81 80 83 90 112 123 133 136 140 146 145 145 141 142 137 126 128 130 129 132 138 142 143 142 140 138 137 140 142 143 142 142 145 144 144 142 139 139 135 127 118 109 105 97 93 94 95 98 99 93 93 105 124 133 145 163 161 152 173 206 201 187 164 127 79 50 40 43 49
216 220 230 235 240 245 243 244 245 246 251 252 251 257 262 267 272 257 264 261 244 247 256 244 217 240 128 102 92 89 103 112 122 128 136 139 142 144 141 144 144 142 130 124 129 129 130 134 138 141 141 141 140 139 141 142 144 145 144 146 147 146 146 143 141 141 134 125 115 108 100 92 90 92 93 93 90 83 84 89 101 134 164 173 174 172 176 195 196 187 166 133 79 44 37 42 49
215 209 229 237 234 243 244 247 247 244 248 249 246 251 262 269 265 234 256 260 250 247 245 203 209 240 142 112 115 108 114 126 132 133 138 142 142 141 142 144 145 139 128 129 132 127 131 134 136 140 139 140 142 143 144 145 146 147 149 149 147 147 148 144 144 142 133 125 117 110 100 91 88 89 90 91 89 80 75 75 80 88 115 163 179 184 180 180 186 179 165 144 98 42 32 36 47
224 203 219 237 236 241 246 251 252 253 250 245 239 242 254 263 249 232 249 253 247 241 223 190 219 238 166 130 126 121 128 137 138 138 140 143 142 141 143 144 142 137 133 135 132 128 131 133 135 138 140 142 145 148 148 149 149 151 152 149 147 147 148 147 146 142 134 128 121 112 103 95 90 88 87 90 93 85 73 67 68 75 80 135 173 182 181 189 189 177 171 164 150 40 24 28 36
229 217 213 231 244 249 251 253 254 258 256 247 237 234 234 243 245 241 245 245 242 238 226 208 226 249 150 121 128 135 143 147 143 142 145 144 143 142 144 145 142 140 139 137 133 133 132 133 135 138 142 143 148 153 151 151 152 154 154 150 149 149 149 149 146 143 137 131 123 113 106 100 94 85 82 85 89 87 79 74 65 65 71 99 163 181 188 196 193 181 184 194 197 244 349 7 17
229 234 231 236 243 249 253 255 254 251 248 252 240 191 182 237 254 251 242 241 237 235 239 220 215 227 122 119 140 149 155 151 147 149 148 145 142 142 144 146 143 144 144 139 139 139 135 133 134 138 142 141 146 152 152 153 154 155 154 152 152 152 151 150 147 145 140 133 124 116 109 103 92 74 77 79 86 89 72 72 74 68 68 83 125 176 197 204 198 193 201 210 221 240 280 322 348
229 238 244 247 245 246 248 248 255 256 251 251 213 110 174 240 253 249 238 246 246 235 248 231 217 217 170 168 176 158 155 152 151 152 146 143 142 142 145 144 143 149 147 142 145 145 141 137 135 138 141 142 144 147 152 155 157 156 154 155 155 154 152 151 149 147 141 132 126 122 116 109 95 76 82 70 68 85 72 68 78 86 84 86 110 146 182 204 201 203 213 219 232 242 260 288 314
231 246 242 243 246 244 242 241 246 254 257 239 105 118 214 225 214 235 238 249 259 240 231 226 214 219 208 183 162 149 151 153 151 151 145 143 144 142 145 146 147 151 147 144 149 149 143 141 141 141 142 145 144 144 149 153 157 155 153 156 156 155 154 153 150 148 143 134 133 131 123 120 106 89 93 77 62 61 76 105 81 90 100 100 124 151 170 196 204 210 218 222 233 242 254 271 288
226 241 241 236 240 243 243 241 237 248 244 132 127 172 219 228 204 221 242 243 254 244 222 222 205 213 254 147 146 145 145 149 149 149 148 147 147 146 149 150 153 152 148 149 150 147 143 145 146 142 144 145 143 143 144 151 157 153 153 157 157 156 155 155 153 153 147 139 142 141 131 130 124 102 94 79 76 50 23 242 251 94 110 110 130 170 189 204 214 222 227 232 238 244 252 265 276
219 223 234 234 235 239 241 244 244 255 243 156 166 183 214 244 216 196 225 226 237 242 218 212 207 169 61 88 135 141 142 148 150 153 153 152 151 151 152 154 157 154 151 152 151 149 147 148 147 142 145 145 142 143 145 152 155 151 155 158 160 161 158 158 160 164 160 153 157 156 145 138 140 118 104 103 97 79 353 323 265 234 209 194 178 192 210 220 228 235 241 248 250 255 261 266 267
221 219 229 233 239 241 241 254 255 253 263 178 154 175 214 242 264 200 224 223 217 226 214 203 202 132 90 104 131 139 146 149 154 161 158 156 157 155 154 155 155 155 155 154 151 153 151 149 147 144 143 145 146 145 147 153 154 155 157 160 165 167 165 168 169 171 169 163 164 160 153 152 149 136 170 189 162 178 278 342 299 232 253 235 251 249 240 237 239 244 246 252 257 260 262 261 258
219 224 233 231 239 246 237 257 274 272 290 262 176 179 218 239 254 230 247 243 213 216 215 196 191 145 119 131 141 149 153 153 159 164 161 160 160 156 154 155 156 158 158 155 153 154 153 149 146 143 144 148 150 148 150 154 157 159 160 162 167 168 168 172 170 168 167 163 166 167 165 172 167 170 199 187 175 195 231 324 46 61 256 259 286 261 248 264 272 262 255 262 263 258 253 249 252
215 220 237 237 233 245 229 224 250 254 272 258 239 225 230 239 246 242 252 251 221 215 212 193 185 159 145 146 150 160 159 158 164 164 163 163 162 159 155 156 159 159 158 155 153 153 152 150 146 143 149 155 153 152 155 157 160 162 164 165 166 168 167 169 171 166 168 170 173 182 181 179 186 196 197 196 196 197 209 250 298 344 242 259 300 272 247 256 269 256 251 264 259 246 243 244 253
222 222 235 246 240 246 243 218 238 247 246 250 249 239 238 245 245 246 250 251 241 215 202 193 183 167 158 151 152 166 166 163 166 167 166 165 163 161 157 157 159 158 158 155 153 151 151 151 148 147 154 161 158 156 158 159 163 165 165 165 166 169 170 172 176 173 176 180 179 183 181 182 196 196 186 200 203 208 213 220 261 283 254 258 266 266 254 254 261 254 251 256 255 247 248 250 252
227 229 225 241 250 252 255 226 211 236 239 237 239 237 245 261 250 243 246 250 263 251 203 191 177 167 158 152 157 169 170 167 168 170 168 166 163 159 158 158 158 159 158 156 153 151 151 152 149 150 159 163 161 159 158 161 166 166 164 166 168 171 174 177 178 176 177 179 181 179 177 184 192 189 184 199 203 232 254 259 267 260 265 274 261 262 272 272 266 265 270 270 272 269 263 261 255
222 238 223 230 242 241 243 230 205 225 240 240 242 246 247 251 248 237 239 241 254 288 193 169 161 158 152 154 163 167 171 171 171 171 167 166 161 156 156 156 159 160 156 155 155 151 151 152 151 154 161 163 162 161 161 164 167 164 163 167 168 167 171 177 177 173 173 175 175 173 179 185 181 185 192 206 228 252 281 289 283 274 272 280 273 268 278 284 278 274 281 276 276 278 271 268 265
217 237 238 227 232 232 229 234 233 233 242 243 240 245 243 242 252 250 248 240 222 212 143 147 150 150 151 158 164 167 172 172 172 171 165 163 158 151 153 157 161 157 152 154 153 152 152 152 155 157 162 165 162 163 165 164 164 162 163 167 166 166 171 174 170 168 169 171 172 171 176 183 180 191 204 229 253 261 277 274 280 283 278 281 283 281 278 285 288 281 278 271 271 275 274 272 267
211 228 243 236 229 231 231 235 238 237 238 238 235 236 237 236 248 254 246 238 201 180 175 162 157 156 157 162 166 171 174 172 171 169 164 161 156 151 155 160 159 154 151 153 153 154 155 156 158 160 164 166 163 165 166 161 160 161 163 165 164 168 171 167 166 170 170 165 168 171 172 180 190 208 219 242 257 261 268 270 276 281 285 289 288 289 286 285 284 278 276 272 270 273 275 276 270
211 221 237 239 232 226 230 233 229 233 230 230 235 231 233 231 229 241 226 203 174 183 182 168 169 168 164 166 171 173 173 172 169 166 162 157 156 156 160 161 157 155 152 153 157 155 157 160 161 164 165 164 164 166 164 160 160 161 161 161 164 167 165 164 169 171 166 162 165 167 171 180 189 206 222 240 257 264 266 273 284 292 299 296 291 295 297 294 288 282 280 278 276 278 278 278 276
232 231 236 235 233 229 229 230 225 230 227 223 232 234 234 228 222 237 203 159 173 191 174 167 178 172 167 169 170 172 171 170 166 163 160 157 161 162 163 163 157 156 155 157 160 157 159 163 163 166 165 163 166 166 160 161 161 160 160 160 162 163 160 165 169 166 164 164 165 163 167 180 188 200 220 251 271 282 287 293 299 306 308 303 304 304 299 296 292 289 286 282 281 282 281 280 279
238 236 239 230 226 232 229 227 224 225 227 214 218 232 231 226 226 219 166 151 180 188 168 170 180 168 167 168 165 171 168 167 166 163 164 165 166 164 163 163 158 157 158 159 159 159 163 164 163 164 164 166 167 165 161 162 162 160 161 160 160 161 164 167 165 164 165 163 163 164 168 176 188 203 229 282 301 305 305 307 307 308 310 308 308 301 296 294 291 292 290 287 283 281 281 280 279
231 224 235 234 221 228 224 222 221 220 226 208 206 225 222 220 220 186 130 172 179 177 170 169 174 165 166 168 167 172 168 168 169 164 166 167 166 164 162 162 162 160 158 158 158 161 164 163 163 163 165 168 167 165 164 164 164 161 162 161 162 166 168 167 165 166 164 162 164 164 164 165 178 199 239 310 317 310 305 308 312 313 312 306 301 295 292 288 288 290 290 290 288 284 283 281 281
224 220 223 236 230 226 211 207 212 214 213 202 205 229 226 213 182 109 77 203 176 169 171 166 173 167 166 172 172 172 170 172 170 164 165 166 164 164 163 163 164 162 159 159 159 161 162 160 162 162 165 168 168 167 167 166 164 163 164 164 166 170 169 167 165 164 163 163 161 156 154 150 158 181 168 296 295 295 301 308 314 314 309 302 297 294 292 290 290 291 292 294 293 290 288 287 285
215 221 218 223 234 236 203 190 202 207 198 195 204 228 230 187 126 119 128 156 143 157 171 170 174 170 171 176 174 173 171 171 168 163 166 167 162 162 164 166 165 163 160 159 157 160 160 160 162 163 164 166 167 168 167 166 166 166 166 166 168 168 168 168 164 162 161 157 150 147 146 140 152 170 195 263 286 293 304 309 313 310 306 304 301 298 295 294 294 293 294 295 295 294 293 291 289
207 218 224 212 219 239 198 176 194 203 196 193 203 231 227 126 117 133 149 155 150 161 173 171 170 172 176 176 174 173 169 173 173 167 170 170 163 160 161 165 167 161 156 155 157 159 159 160 163 163 164 165 166 168 168 168 169 167 165 167 168 168 169 168 162 158 152 148 143 140 137 139 149 146 214 302 305 306 310 310 312 314 312 310 307 304 301 300 300 298 296 295 297 297 296 296 293
203 209 227 217 211 231 199 168 189 200 205 197 202 229 207 125 133 132 147 167 163 164 171 172 176 176 177 175 169 176 181 178 177 171 170 168 160 155 154 161 164 155 152 155 157 159 160 163 164 162 165 165 164 165 166 168 166 163 166 167 165 169 172 165 159 151 144 141 135 131 131 133 130 106 8 334 324 318 316 315 320 323 322 320 316 312 308 307 307 305 304 302 302 300 299 299 297
205 199 217 221 207 221 209 175 185 196 207 202 201 218 177 124 136 137 161 184 171 167 173 178 185 178 173 169 158 183 206 189 176 165 158 153 151 151 155 160 159 151 151 155 157 160 161 163 162 160 160 160 162 161 162 165 159 161 169 169 174 180 175 162 152 143 136 131 125 124 124 118 100 59 20 356 339 330 328 327 332 332 330 328 322 319 316 316 317 314 311 309 307 302 299 298 298
210 201 209 224 206 214 217 187 182 190 201 205 204 213 185 141 147 151 163 191 185 173 179 188 180 173 167 142 94 50 343 319 30 102 116 122 135 147 157 154 149 146 148 152 156 160 161 160 155 152 149 149 156 157 160 163 160 167 170 176 196 193 169 151 140 134 127 120 117 115 109 98 81 52 26 7 350 340 339 337 337 335 333 330 325 323 320 319 319 317 315 313 309 305 301 300 300
218 204 206 223 212 209 215 184 172 184 198 209 210 215 202 170 158 162 165 191 199 181 185 191 173 172 163 122 92 74 69 35 50 71 79 73 63 89 118 119 122 127 137 149 153 154 155 150 145 146 149 156 160 155 160 166 167 182 186 189 198 187 159 141 131 126 118 113 110 104 97 85 65 46 25 8 353 343 343 340 336 334 330 327 324 320 318 317 317 316 316 314 311 309 307 305 305
233 210 205 218 216 210 201 158 164 190 205 211 211 219 214 189 161 165 171 179 196 193 187 187 175 172 159 134 122 107 100 117 115 93 99 107 113 126 120 106 106 111 143 155 145 149 146 141 149 159 162 170 169 157 158 165 176 204 208 198 188 171 149 134 126 121 112 109 107 97 88 75 58 47 30 9 359 349 344 337 333 331 326 324 322 319 317 316 316 317 318 316 314 313 309 308 309
235 220 212 210 213 213 187 153 173 197 209 211 205 217 221 190 152 160 177 174 182 193 180 179 181 169 158 150 138 128 124 127 134 119 116 123 135 136 117 113 123 139 161 153 144 157 147 145 157 164 165 174 177 164 160 163 186 221 218 201 174 140 119 116 117 116 110 106 101 90 79 70 59 53 37 13 2 349 339 334 331 328 326 325 322 320 320 318 318 319 318 317 316 314 310 308 313
225 226 214 208 213 212 177 155 183 197 211 223 206 208 222 189 156 162 178 174 177 191 181 178 183 166 156 152 143 147 141 135 138 135 128 126 137 137 115 117 137 154 160 152 154 157 144 147 154 161 167 174 176 164 158 154 173 219 210 179 139 119 111 112 113 112 108 105 98 87 78 70 60 48 28 10 356 343 338 335 333 331 331 331 326 323 321 320 322 322 321 321 317 315 313 312 316
218 228 220 215 210 199 184 177 186 197 212 230 221 205 212 198 182 177 174 171 169 176 176 172 172 159 150 148 153 159 144 142 149 146 147 147 145 142 131 128 142 151 147 152 167 159 146 152 153 163 169 174 172 157 154 146 154 211 192 140 124 122 123 126 124 121 117 113 105 93 79 64 51 38 18 5 352 343 345 340 339 340 335 333 329 326 323 322 323 323 324 323 318 314 313 313 317
211 225 229 233 212 188 197 190 182 193 205 218 227 213 199 192 194 188 178 175 160 158 169 167 164 158 154 157 161 164 152 150 154 151 157 157 141 135 138 142 148 147 145 156 169 156 148 154 155 165 167 173 170 157 154 147 161 218 201 146 138 135 133 133 127 124 121 116 108 98 81 58 39 28 14 4 358 352 354 349 346 344 336 333 329 323 320 319 322 324 324 322 316 316 316 315 317
209 208 221 243 232 194 193 188 183 200 200 199 212 220 200 185 197 192 183 183 160 156 168 164 166 162 163 171 163 164 165 157 158 155 154 156 144 137 144 154 159 159 155 152 153 150 156 159 157 165 168 167 164 157 154 149 180 225 212 150 143 137 130 125 114 108 106 109 108 96 77 58 37 31 25 11 14 8 2 357 348 345 337 333 330 324 322 322 325 326 324 321 318 320 323 320 322
209 186 202 236 244 199 187 190 196 209 201 193 204 223 225 197 206 193 174 182 185 178 174 164 173 170 170 178 167 170 173 161 161 159 151 155 154 145 149 159 162 158 148 138 137 148 165 164 156 166 174 163 159 158 153 155 197 221 186 132 125 117 116 113 112 114 108 107 99 84 69 57 39 35 34 21 23 15 4 360 350 348 342 337 336 331 330 329 328 329 325 322 323 325 329 328 330
217 183 192 210 226 201 187 197 211 209 204 201 199 215 236 214 206 196 176 186 205 197 187 180 177 178 188 190 180 178 174 164 162 160 153 151 154 153 150 152 150 141 133 128 129 144 166 163 148 161 174 161 156 155 156 174 198 197 146 125 113 104 108 112 120 130 121 109 87 78 73 59 45 43 39 28 26 16 7 5 356 354 349 345 343 337 337 334 332 333 328 326 328 329 333 336 334
220 183 186 188 196 207 204 211 223 213 212 221 203 202 229 226 196 199 191 189 199 197 195 191 178 179 191 191 190 184 169 167 163 154 152 148 149 152 146 142 136 128 125 128 137 147 155 150 143 157 162 157 165 157 158 181 172 139 120 112 103 106 120 127 129 128 116 106 94 84 74 61 53 48 39 31 26 16 13 13 5 2 356 352 349 344 343 340 336 336 332 331 335 335 336 340 336
197 161 185 188 193 210 214 221 233 225 211 221 219 205 216 234 197 192 205 200 196 191 190 194 183 178 183 181 188 186 166 165 165 152 152 149 144 147 143 138 131 124 124 136 152 152 146 150 149 155 165 160 160 148 145 159 133 113 104 94 96 115 128 135 133 125 117 111 103 90 78 68 58 49 40 32 26 18 17 17 11 8 4 359 355 351 348 344 340 339 337 338 340 342 344 344 341
187 168 196 192 191 204 209 215 228 236 215 209 222 212 206 229 217 183 198 205 200 190 181 188 190 182 179 181 185 183 167 161 163 157 155 150 146 152 147 138 135 129 126 138 153 144 142 157 149 151 172 161 142 140 145 150 121 99 93 91 99 120 127 133 131 124 121 111 99 89 82 72 62 51 42 34 25 19 19 19 15 12 9 5 360 357 352 347 343 340 341 343 345 347 349 349 349
193 186 200 192 186 193 200 206 210 228 228 206 218 219 206 224 236 202 193 197 202 201 188 184 185 179 178 184 184 178 166 158 163 161 156 151 152 156 150 144 143 134 130 145 153 142 146 164 157 153 163 153 144 149 148 136 110 94 98 106 112 123 123 124 126 126 118 102 90 84 76 68 63 52 43 36 24 21 22 20 18 16 13 9 5 3 358 353 350 344 344 350 353 352 351 353 357
196 193 200 195 187 188 196 204 202 213 229 214 214 222 216 220 233 215 192 192 204 208 198 185 177 174 177 177 171 173 167 161 171 167 156 155 156 156 153 151 147 138 144 159 156 147 152 164 167 161 158 152 148 146 130 115 107 106 116 119 120 125 122 117 117 113 101 90 87 85 78 70 63 51 44 38 26 25 28 25 23 22 17 13 10 7 3 0 354 349 352 359 359 355 356 1 5
199 202 207 208 200 192 195 204 203 202 213 213 214 223 214 204 233 212 177 179 206 208 204 192 170 166 174 166 158 168 171 170 177 171 161 160 158 157 157 157 149 143 152 160 155 151 153 157 162 161 155 147 138 129 121 117 115 115 116 117 121 123 118 115 108 97 89 85 86 86 81 74 65 55 47 40 34 31 32 31 28 25 20 16 12 10 8 3 356 358 5 7 4 360 2 6 8
196 206 212 216 210 195 193 214 228 226 214 208 213 227 210 190 300 263 157 158 190 204 200 177 146 156 176 167 159 166 170 174 176 168 161 159 157 159 161 159 149 145 150 153 151 152 150 152 157 151 139 131 128 128 125 120 117 115 111 111 117 117 112 110 102 97 97 92 90 86 80 77 71 62 52 44 41 37 36 35 30 27 23 17 15 14 13 6 4 11 13 11 9 6 7 11 10
183 204 212 213 214 209 200 206 245 279 224 205 197 212 210 200 218 209 167 169 180 189 197 162 141 162 181 164 155 162 166 174 171 161 157 155 157 161 159 154 148 146 147 145 145 147 146 147 146 136 126 125 128 127 121 117 115 112 110 109 113 113 108 102 100 101 101 96 90 85 80 76 70 65 57 51 47 42 40 38 33 29 23 20 20 21 20 17 16 21 18 15 14 10 11 15 12
190 198 204 201 215 225 217 200 202 220 219 204 189 196 211 218 202 182 191 198 191 190 201 181 150 161 180 161 157 167 168 170 163 154 154 154 157 160 155 152 150 148 143 139 140 142 142 140 134 128 128 128 126 121 118 119 117 113 110 110 111 110 104 103 105 104 100 93 87 85 81 74 69 66 62 56 51 46 43 41 39 34 29 28 28 26 26 24 24 25 21 19 17 14 17 18 15
219 199 196 203 210 215 217 208 200 204 214 211 196 196 212 224 206 182 192 201 199 195 200 193 165 161 178 170 165 169 165 163 160 154 156 158 158 159 157 154 152 148 140 137 138 139 138 135 129 128 129 126 123 122 120 118 116 115 113 110 108 104 102 106 108 104 95 89 86 84 79 75 73 68 64 60 55 52 49 46 43 39 36 34 31 28 27 25 26 25 22 22 21 20 22 21 19
225 210 201 211 209 206 213 211 202 201 209 213 205 203 213 224 208 188 190 198 201 196 196 198 180 171 179 172 165 168 163 161 162 157 158 162 160 158 155 151 148 143 137 135 134 133 132 130 129 130 128 125 124 122 120 117 116 117 116 112 108 104 105 109 106 100 92 89 88 84 78 77 74 68 65 63 60 58 55 50 44 39 37 33 30 29 26 25 27 27 26 26 25 25 26 25 23
210 210 203 201 191 200 211 210 210 208 205 205 213 216 214 221 212 193 193 200 203 197 193 195 184 174 177 173 166 166 163 163 163 160 162 163 162 158 151 146 143 139 137 136 134 132 131 131 132 133 131 129 127 122 119 119 118 119 117 115 113 111 111 110 104 98 93 90 88 84 82 80 75 71 68 66 64 60 55 50 44 38 35 33 31 30 28 28 29 29 31 30 27 28 29 28 25
194 204 207 197 186 195 204 207 210 215 214 203 210 225 217 214 217 202 196 198 200 197 190 187 181 173 171 170 167 166 165 165 163 163 164 161 160 156 148 146 144 139 139 140 136 134 135 136 135 133 131 129 127 124 123 122 122 121 117 118 120 117 113 109 103 98 94 91 89 87 85 81 78 74 71 69 65 59 54 50 46 41 35 33 33 34 33 34 33 32 33 32 30 29 28 28 28
Height
780 781 779 780 776 776 771 767 785 776 771 785 773 767 756 736 737 745 748 745 743 740 737 739 736 738 745 748 753 759 766 769 773 788 792 775 766 771 772 774 777 780 786 787 788 790 791 793 794 796 798 799 801 802 804 805 806 807 808 810 811 812 813 813 813 814 814 814 815 815 816 816 817 818 818 818 818 819 819 819 819 819 820 820 820 820 820 820 820 820 820 820 819 819 819 818 818
781 782 779 780 775 778 773 766 792 790 782 789 771 762 751 734 739 747 748 744 740 736 735 736 737 738 741 743 743 753 765 763 762 773 774 767 768 772 773 776 778 782 787 788 790 791 793 794 795 797 798 800 802 803 805 806 807 808 809 810 812 813 814 814 815 815 815 816 816 816 817 817 818 818 819 819 819 819 820 820 820 821 821 821 821 821 821 821 821 821 821 821 821 820 820 820 819
781 782 778 779 774 774 774 773 793 797 793 791 772 753 743 741 739 740 739 734 733 734 738 738 740 740 741 747 746 756 769 762 760 766 767 768 769 772 775 777 779 784 787 789 791 792 793 794 796 798 799 801 803 804 806 807 808 809 810 812 813 814 815 815 816 816 816 817 817 818 818 818 819 819 820 819 820 820 820 820 821 821 822 822 822 823 822 822 822 822 822 822 822 821 821 820 820
780 781 778 776 775 775 779 786 790 791 793 786 773 751 739 741 734 736 733 729 733 736 741 740 742 739 741 753 750 757 768 763 762 765 767 768 769 773 776 778 782 785 787 790 791 792 793 795 797 798 800 802 803 805 806 808 809 810 811 812 814 815 816 817 817 817 817 818 818 819 819 819 819 820 820 820 820 820 821 821 821 821 822 823 823 824 823 823 823 823 823 823 823 822 822 821 821
780 781 778 775 781 779 778 786 782 784 786 776 770 753 739 735 729 733 732 734 737 739 742 742 746 737 740 747 746 760 767 763 761 761 766 768 771 775 777 780 783 785 788 789 792 793 793 795 797 799 801 802 804 805 807 809 810 811 812 813 815 816 817 818 818 818 818 819 819 819 819 820 820 820 820 820 821 821 821 821 821 822 822 823 824 824 824 824 824 824 824 824 824 823 823 823 822
780 778 776 775 776 773 780 788 783 781 770 762 763 750 738 732 729 735 737 739 736 738 741 742 746 739 745 747 747 759 759 759 762 762 765 769 773 776 778 781 783 785 787 790 793 793 794 796 798 800 801 803 805 806 808 810 811 812 813 814 816 817 818 819 819 819 819 819 820 820 820 821 821 821 821 821 821 821 821 821 822 822 823 824 824 825 825 826 825 825 825 825 825 824 824 824 823
778 777 774 779 777 773 789 792 782 777 760 751 754 746 739 732 732 739 742 743 740 739 741 741 738 741 752 750 755 761 755 757 758 762 767 771 775 777 780 781 782 785 787 791 794 794 795 796 798 801 802 804 805 807 808 810 812 812 813 815 816 818 819 819 820 820 820 820 820 821 821 821 821 821 821 822 822 822 822 822 823 823 824 824 825 826 826 826 825 825 825 825 825 825 825 824 824
776 776 770 779 784 778 787 786 776 770 757 746 743 739 735 729 733 744 746 746 746 741 741 741 736 748 754 748 761 764 758 760 759 765 770 772 776 778 780 781 783 785 789 792 794 795 795 797 800 802 803 805 806 808 809 811 813 813 814 815 817 819 819 820 821 821 821 821 821 821 822 822 822 822 822 823 823 823 823 823 823 823 824 825 825 826 826 826 826 826 826 826 826 826 825 825 825
774 776 771 778 784 780 780 778 771 762 754 746 740 734 729 727 732 744 749 747 744 742 742 737 738 750 752 753 767 763 760 765 765 769 772 774 777 778 781 782 784 786 789 792 795 796 796 799 801 803 805 806 807 809 810 812 813 814 815 816 818 819 820 821 821 822 822 822 822 822 822 822 823 823 823 823 824 824 824 824 824 824 824 825 825 826 826 826 826 826 826 826 826 826 826 826 825
772 773 774 779 783 783 778 771 765 757 750 742 737 732 727 728 732 742 750 747 741 744 741 731 739 746 749 764 772 764 763 767 770 773 775 777 778 779 782 783 786 787 790 793 796 797 798 801 802 804 805 807 808 810 811 813 814 815 816 817 819 820 821 821 822 823 823 823 823 823 823 823 823 823 824 824 824 824 824 824 824 824 824 825 825 826 826 826 827 827 827 827 827 827 827 826 826
775 771 771 780 784 784 777 768 760 751 744 737 733 728 726 727 735 745 748 747 741 742 739 735 746 745 749 767 769 764 765 768 772 775 777 778 779 781 782 785 787 788 791 794 797 798 799 802 804 805 806 808 809 810 812 813 815 816 817 818 819 820 821 822 823 824 824 824 823 824 824 824 824 824 825 825 825 825 825 825 824 825 824 825 825 826 826 827 827 827 827 827 828 828 827 827 827
777 772 773 783 781 775 768 763 756 747 740 735 734 728 726 729 739 748 748 748 743 743 740 740 745 738 751 767 764 764 766 771 774 775 778 779 780 782 783 786 788 790 793 795 797 798 800 803 805 807 808 809 810 812 812 814 816 816 817 818 820 821 822 823 823 824 824 824 824 824 825 825 825 825 825 825 826 826 826 825 825 825 825 825 825 826 827 827 827 827 828 828 828 828 828 828 827
774 769 774 782 773 766 762 758 753 748 743 735 733 728 726 734 742 745 746 746 743 746 740 735 736 734 753 764 761 764 768 772 773 776 778 779 781 782 785 786 788 791 793 795 798 800 802 803 805 808 809 810 811 812 813 814 816 817 818 819 820 821 822 824 824 825 825 825 825 825 825 826 826 826 826 826 826 826 826 826 825 825 825 826 826 827 827 827 828 828 828 828 828 828 828 828 828
768 763 768 775 767 763 759 756 751 751 749 734 727 726 730 739 740 739 742 747 745 743 734 726 730 740 756 764 766 766 767 771 773 777 777 779 781 783 785 787 790 792 793 796 798 800 802 804 806 808 809 811 812 813 814 815 816 818 819 820 821 822 823 824 825 826 826 826 826 826 826 826 827 827 827 827 827 827 827 826 826 826 826 826 826 827 827 827 828 828 828 828 828 829 829 828 828
764 760 764 770 767 763 756 755 751 752 746 731 727 730 738 739 736 740 741 747 743 730 728 726 727 742 752 759 767 762 763 770 771 775 777 780 781 783 787 787 790 792 794 795 797 800 802 805 806 808 810 812 813 814 816 816 817 818 819 821 821 822 823 824 825 826 826 827 827 826 827 827 827 827 827 827 827 828 827 827 827 827 827 826 827 827 827 828 828 829 829 829 829 829 828 829 828
759 759 765 771 770 765 755 750 752 755 742 730 733 734 743 740 735 743 737 738 740 728 730 732 727 736 740 743 753 754 760 768 771 775 776 780 781 784 787 788 791 792 794 796 797 800 801 805 806 808 810 812 814 814 816 817 818 819 820 821 822 823 824 825 826 827 827 827 827 827 827 827 827 827 828 828 828 828 828 828 828 827 828 827 827 827 827 828 828 829 829 829 829 829 828 828 828
758 763 770 772 769 764 754 748 750 750 737 733 738 737 746 744 734 737 731 733 741 734 732 732 726 730 732 734 743 750 760 767 771 775 776 779 781 783 786 788 790 791 794 796 797 800 802 804 805 808 810 812 813 814 816 817 818 819 821 822 822 823 824 825 826 827 828 827 827 827 827 827 828 828 828 829 828 828 828 829 828 828 828 827 827 827 827 828 828 828 828 829 828 828 828 828 827
762 769 773 771 765 757 747 743 740 737 734 736 740 739 746 747 739 734 735 740 741 738 734 732 730 731 734 737 745 752 759 766 771 774 775 778 779 782 785 786 789 790 793 795 798 800 802 804 805 808 809 811 813 814 816 817 819 820 821 822 823 824 824 826 826 827 827 827 828 827 828 828 829 829 829 830 829 829 829 828 828 828 828 828 827 827 827 827 828 828 828 828 828 828 828 827 827
764 767 770 766 756 746 737 734 731 734 736 735 739 742 745 746 740 736 742 746 741 742 739 735 736 738 744 746 753 758 760 766 771 773 774 776 778 780 782 785 788 789 792 794 797 800 802 804 805 807 809 811 813 814 816 817 819 820 822 822 823 823 824 825 826 827 827 827 828 828 829 829 829 829 829 830 829 829 829 829 828 828 828 828 827 827 827 827 827 827 827 828 827 827 827 826 826
761 762 766 758 747 739 732 733 734 736 737 738 741 742 744 743 738 738 744 744 740 743 739 737 741 744 751 753 756 762 763 767 770 773 774 775 777 779 781 784 786 788 791 794 796 800 801 803 805 806 809 811 812 814 816 817 818 820 821 822 822 823 824 825 826 827 827 828 828 828 829 829 829 829 829 829 828 829 829 829 829 828 828 828 828 828 827 827 827 827 827 827 826 826 826 826 825
757 757 760 749 741 740 734 736 738 737 740 742 742 743 746 740 736 739 743 745 743 739 733 733 739 743 750 754 757 762 765 767 769 772 773 774 776 778 781 783 786 788 790 793 796 799 801 803 804 806 809 810 811 813 815 816 817 819 820 821 822 823 824 825 826 827 827 828 828 828 828 828 829 829 829 829 829 829 829 829 829 829 828 828 829 828 828 827 827 826 826 826 825 825 825 825 824
755 753 752 743 738 742 736 735 740 740 742 744 745 747 745 737 738 741 741 747 741 730 726 727 732 738 745 750 757 761 764 767 768 770 772 773 775 777 780 782 785 787 790 793 795 798 800 802 804 806 808 810 811 812 814 815 817 817 818 820 821 822 823 824 825 826 826 827 828 828 828 828 828 829 829 829 829 829 829 829 829 828 828 829 829 828 828 828 827 827 826 825 825 825 824 823 823
757 751 746 743 739 742 739 736 742 743 745 748 746 744 739 740 744 739 738 742 731 720 719 720 725 732 739 748 756 761 763 766 767 768 770 772 774 776 779 781 784 786 789 792 794 797 799 802 804 806 808 809 810 811 813 814 816 816 817 819 820 821 822 823 824 825 826 827 827 827 828 828 828 829 829 829 829 829 828 828 829 828 827 828 828 827 827 827 826 826 825 825 824 824 823 823 822
756 753 744 744 741 741 740 739 743 745 747 745 741 740 741 746 745 736 737 735 726 720 717 718 724 728 738 749 756 761 763 765 767 768 770 772 774 776 779 781 784 786 788 791 794 796 799 801 803 805 807 808 809 810 812 813 814 816 817 818 819 820 821 823 824 824 826 826 827 827 827 828 828 828 828 828 828 828 828 828 828 828 827 827 826 826 826 826 825 825 825 824 823 823 822 822 821
752 753 744 741 740 739 739 741 743 744 745 741 741 745 744 743 739 736 736 731 724 724 723 724 728 733 742 751 756 760 762 764 766 768 771 773 774 776 779 782 784 786 788 791 794 796 799 801 803 805 806 807 809 810 811 812 813 815 816 817 818 819 821 822 823 824 825 825 826 826 827 827 827 828 828 828 828 828 828 828 827 827 827 826 826 825 825 825 825 824 824 823 822 821 820 820 819
747 749 745 740 741 739 740 742 743 744 742 740 744 747 742 736 736 739 735 728 724 725 729 731 734 740 746 752 756 758 761 763 765 768 770 772 774 776 779 782 784 786 789 791 794 796 798 800 803 804 806 807 808 810 811 811 813 814 815 816 817 819 820 821 822 823 824 824 825 825 826 827 827 827 828 828 828 828 828 827 827 827 826 826 826 825 824 824 824 823 823 822 822 820 819 819 818
739 744 744 740 740 739 741 742 741 741 740 740 743 745 740 731 736 742 730 722 725 728 732 734 738 744 748 752 755 756 759 761 763 766 768 771 773 776 779 782 784 786 788 791 793 796 798 800 803 804 805 806 808 809 810 811 812 813 814 816 817 818 819 820 821 822 823 823 824 825 825 826 827 827 827 827 827 827 827 827 827 826 826 826 825 824 824 824 823 823 822 821 820 819 818 817 816
738 742 745 741 739 739 740 741 739 740 739 737 739 742 738 731 737 738 725 722 728 730 734 737 740 744 747 752 755 757 758 760 763 765 767 770 772 775 778 780 783 786 788 791 793 796 798 800 802 804 805 806 808 809 810 811 812 813 814 815 816 817 818 820 820 821 822 823 823 824 825 825 826 826 826 826 826 827 826 827 826 826 826 825 825 824 824 823 822 822 821 820 819 818 817 816 815
740 742 748 744 740 743 740 739 738 739 739 732 736 747 743 737 735 728 723 726 729 731 735 739 741 743 748 752 755 758 758 760 762 764 767 770 772 774 777 780 782 785 788 791 793 796 798 800 802 803 805 807 808 809 810 811 812 813 814 815 816 817 818 819 820 820 821 822 822 823 824 825 825 825 826 826 826 826 826 826 826 826 825 825 825 824 823 822 822 821 820 819 818 818 816 815 814
742 742 748 746 744 745 737 735 736 737 736 727 736 754 748 735 729 725 729 730 730 735 738 739 741 743 749 753 756 758 757 760 762 764 768 770 773 775 777 780 782 785 788 791 793 796 798 799 802 804 806 807 808 809 810 811 812 813 814 815 816 817 818 818 819 820 820 821 822 822 823 824 825 825 825 826 826 826 826 826 826 825 825 824 824 823 823 822 821 821 820 819 818 817 815 814 813
745 745 747 746 747 741 727 729 735 737 733 724 736 754 741 725 725 731 738 736 734 739 741 741 743 745 750 753 755 757 757 759 762 764 768 770 773 775 777 780 782 784 787 790 793 795 798 799 802 804 805 807 808 809 810 811 812 813 814 815 816 817 817 818 818 819 820 820 821 822 823 823 824 824 825 825 825 826 826 825 825 825 824 824 824 823 823 822 821 820 819 818 817 816 815 813 812
744 750 751 746 744 734 719 722 729 734 731 723 737 749 734 725 730 732 736 739 740 744 744 743 744 746 750 753 755 758 758 759 761 764 767 770 772 775 777 779 781 784 786 789 793 795 798 800 802 804 805 807 808 809 810 812 812 813 815 815 816 817 817 818 818 818 819 820 820 821 822 823 823 824 824 824 825 825 825 825 825 825 824 824 823 823 822 822 821 820 819 818 817 815 814 812 811
742 747 749 741 740 733 719 721 722 725 729 727 736 740 730 733 738 732 733 739 743 746 746 745 747 747 749 752 754 758 760 761 761 763 766 768 771 774 777 779 781 784 787 790 793 796 798 800 802 803 805 807 808 810 811 812 813 814 815 816 816 817 818 818 818 818 818 819 820 821 822 822 823 823 823 824 824 824 824 824 824 824 824 823 823 822 822 821 821 820 818 818 816 815 813 812 810
742 742 742 734 734 731 723 725 721 720 726 729 733 732 730 738 741 738 738 741 744 747 749 748 747 747 749 751 755 760 762 761 760 762 765 768 771 774 777 780 782 784 788 791 793 796 798 800 802 803 805 807 809 811 812 813 814 816 817 817 817 817 818 817 817 818 818 818 819 820 821 821 822 822 823 823 823 824 824 824 824 823 823 823 822 822 822 821 820 819 818 817 816 814 812 811 809
739 740 741 732 728 726 722 724 721 719 724 727 732 732 733 739 741 743 745 744 745 747 749 750 748 749 751 753 759 765 767 764 763 764 768 772 775 777 779 780 784 786 788 791 794 795 797 800 802 804 806 808 810 812 813 814 815 818 819 818 818 818 818 817 817 817 817 818 819 819 820 821 822 822 822 823 823 823 824 823 823 823 823 823 822 822 821 820 820 819 818 816 815 814 812 810 809
729 731 734 729 724 724 717 714 714 716 725 728 728 730 733 739 741 742 747 748 747 748 751 752 752 753 755 760 767 774 778 777 773 773 774 777 780 781 782 783 785 788 790 792 794 796 798 800 802 805 807 809 811 812 813 815 817 819 819 819 819 818 817 816 816 817 817 818 818 819 820 821 821 822 822 823 823 823 823 823 823 823 823 823 822 822 821 820 819 818 817 816 815 813 811 810 808
720 723 728 725 721 722 713 709 710 712 725 729 723 724 726 731 737 738 746 753 749 749 754 753 753 755 757 765 773 775 781 784 781 779 780 783 785 785 786 788 790 792 795 796 796 797 799 802 805 807 809 810 811 812 813 814 816 818 820 821 819 818 816 816 816 817 818 818 819 819 820 821 821 822 822 823 823 824 823 824 823 823 823 823 822 822 821 820 819 818 817 816 814 812 810 809 808
719 721 725 723 720 718 709 711 715 712 724 727 719 722 719 719 730 734 741 753 752 748 752 753 753 755 758 765 772 774 777 781 781 780 780 783 785 785 788 792 795 797 799 800 799 800 801 803 807 809 810 811 811 813 814 814 815 818 821 820 818 817 816 815 816 817 818 818 819 820 820 821 821 822 823 823 824 824 824 824 824 823 823 823 822 822 821 820 819 818 817 816 814 812 810 808 808
724 721 722 723 718 713 709 714 719 716 723 725 719 724 718 712 726 735 738 746 747 744 747 752 753 755 759 765 771 775 777 779 780 779 779 782 784 785 788 791 794 794 796 799 800 801 802 804 807 808 809 811 812 814 814 814 816 820 822 820 817 815 815 815 817 817 818 819 819 820 821 821 822 823 823 824 824 824 824 824 824 824 823 823 822 822 821 820 819 818 817 816 814 812 810 808 807
728 722 722 722 713 710 717 722 723 719 721 720 717 722 717 713 727 740 744 747 747 746 748 751 751 753 757 762 768 772 775 777 780 779 777 780 784 787 789 791 791 789 791 796 799 800 802 805 807 808 808 809 811 813 815 815 819 824 824 820 816 815 816 816 817 818 819 820 820 821 821 822 823 823 824 824 824 824 824 824 824 823 823 823 822 822 821 820 819 818 817 816 814 813 810 807 806
730 722 719 718 710 710 718 723 723 722 721 716 715 725 725 719 728 736 738 744 750 751 752 752 751 752 755 759 764 767 769 773 776 777 776 776 779 784 788 791 791 790 790 794 797 798 802 805 807 808 807 809 810 812 814 815 820 825 823 819 816 816 816 817 818 819 820 820 821 821 822 823 823 823 824 824 824 824 824 824 824 824 823 823 823 822 822 820 820 818 817 816 815 813 810 808 806
733 724 717 712 708 711 718 720 723 732 734 719 717 738 739 723 729 738 734 734 742 747 749 751 751 752 754 756 760 763 766 769 772 773 775 775 776 780 786 789 789 790 791 794 796 798 802 806 808 808 807 808 809 811 813 814 819 824 821 817 815 815 816 817 818 819 820 821 821 822 822 823 823 824 824 824 824 824 824 824 824 824 823 823 823 822 822 821 820 818 817 816 814 813 811 809 806
733 723 715 711 706 710 718 721 726 737 737 719 716 737 743 733 735 741 737 734 739 745 748 751 751 752 754 755 757 761 764 768 770 771 773 775 775 777 781 784 785 787 790 794 797 800 803 806 808 807 807 807 808 811 812 813 819 823 820 816 815 815 816 817 818 819 820 821 822 822 822 823 824 824 824 824 824 824 824 824 824 824 823 823 823 822 821 820 819 818 817 816 814 812 811 809 806
728 715 714 717 710 712 719 723 726 727 723 719 717 723 735 742 737 729 732 740 743 746 750 753 754 754 755 756 756 759 762 764 768 771 771 774 776 776 777 779 782 786 789 794 798 801 803 806 808 808 808 809 810 812 813 814 819 822 818 816 815 816 816 818 819 820 821 821 822 822 822 823 824 824 824 824 824 824 824 824 824 824 823 823 822 822 821 820 819 818 817 815 813 812 810 809 806
719 708 713 719 717 718 719 722 724 717 720 729 722 719 734 741 729 721 730 744 748 746 749 753 756 758 758 758 757 756 758 761 763 767 770 772 777 779 777 777 781 786 789 794 799 802 804 806 809 810 810 812 813 814 815 817 820 820 817 816 816 816 817 819 820 821 821 822 822 822 823 823 824 824 825 824 825 825 824 824 824 823 823 823 822 822 821 820 819 818 817 815 813 811 810 809 807
711 705 712 718 721 722 720 723 721 716 729 736 721 720 740 738 723 721 729 740 745 742 742 747 754 761 761 760 761 757 756 760 761 764 769 772 776 779 779 778 780 785 789 794 798 801 805 807 810 812 813 814 815 816 818 819 819 819 817 816 816 817 819 820 821 821 821 822 822 823 823 823 824 824 824 825 825 825 824 824 824 824 823 823 823 822 821 821 819 818 817 815 813 811 810 809 808
709 712 718 722 726 724 724 724 720 727 742 741 722 718 735 739 723 718 723 725 729 734 738 741 744 752 754 754 758 757 756 759 760 763 767 771 775 778 780 779 780 785 790 793 797 800 805 807 810 813 815 817 817 817 819 821 820 818 817 817 817 819 820 820 821 821 821 822 822 822 823 823 824 824 825 825 825 825 825 825 824 824 824 823 823 822 822 821 819 818 817 815 813 812 810 809 807
713 721 723 730 735 732 735 733 732 745 749 736 722 713 727 741 723 710 714 712 712 723 734 738 739 745 748 749 753 755 756 759 760 763 766 769 774 777 779 779 781 787 792 795 797 800 804 807 809 814 817 818 818 818 820 822 820 818 818 818 819 820 820 820 821 821 821 821 822 822 822 823 824 825 825 826 826 826 825 825 825 824 824 824 823 823 822 821 820 818 817 815 814 812 810 809 807
716 723 726 737 746 748 755 751 747 753 743 726 719 713 723 733 715 702 709 709 708 713 720 729 735 742 746 747 751 754 758 762 762 764 766 768 773 776 777 779 782 788 794 796 798 800 804 807 810 815 818 818 819 821 822 821 819 819 819 820 821 821 821 821 821 821 821 821 822 822 822 823 824 825 826 826 827 826 826 825 825 825 824 824 824 823 822 821 820 819 817 816 814 813 811 809 808
718 722 725 734 745 760 769 758 751 754 741 722 714 713 723 726 710 700 704 707 707 706 709 717 725 733 740 742 747 752 759 764 764 764 766 767 770 774 776 778 782 789 794 794 796 800 803 808 813 817 819 819 821 822 822 821 820 820 820 821 821 821 821 821 821 821 821 822 822 823 824 824 825 826 827 827 827 827 826 826 826 825 825 825 824 824 823 822 821 819 817 816 815 814 812 810 809
716 712 715 724 729 746 762 753 749 753 741 725 719 721 726 726 711 696 697 703 704 704 704 708 716 726 733 739 746 753 760 765 765 764 765 767 769 772 775 776 781 788 792 793 796 799 802 808 814 818 819 819 820 821 820 821 821 821 821 821 821 821 821 821 821 822 822 822 823 824 825 825 826 827 827 828 828 827 827 827 826 826 826 825 825 824 824 822 821 820 818 817 816 815 813 812 810
715 707 714 721 712 720 740 740 735 739 738 732 729 724 714 713 708 694 695 704 704 705 703 707 721 729 733 741 746 751 757 762 763 764 765 766 768 772 774 775 779 786 791 793 796 799 802 807 813 815 816 817 819 820 820 821 821 821 821 820 820 820 821 821 822 822 823 823 824 825 826 826 827 828 828 829 829 828 828 828 827 827 826 826 826 825 824 823 822 821 820 819 818 816 815 813 812
715 715 717 711 699 704 727 737 733 737 745 736 729 728 716 715 717 705 704 710 709 711 709 713 728 731 732 740 743 747 754 759 761 762 764 767 769 772 773 775 778 783 788 791 795 799 801 805 809 811 813 815 817 818 819 820 820 820 820 820 820 820 821 821 822 823 823 824 825 826 826 827 828 829 829 830 830 829 829 828 828 828 827 827 827 826 825 824 823 822 821 820 819 818 816 815 813
711 719 712 702 702 702 712 735 745 748 752 737 726 736 734 729 727 715 711 715 714 714 714 717 727 731 734 739 742 745 752 757 759 761 763 767 770 772 774 775 778 781 784 788 792 796 800 803 806 808 811 813 815 817 818 819 819 819 820 820 820 820 821 822 822 823 824 825 826 826 827 828 829 830 830 831 830 830 829 829 829 829 828 828 828 827 827 826 825 824 823 822 820 819 817 816 815
701 706 701 702 719 721 716 730 747 753 755 742 728 733 733 726 721 716 716 717 715 714 714 716 723 732 739 743 744 746 750 755 758 759 763 766 769 772 773 775 778 780 783 787 791 795 798 802 804 807 810 812 814 816 817 818 818 819 819 819 820 820 821 822 823 824 825 826 827 827 828 829 830 831 831 831 831 830 830 830 830 830 829 829 829 828 828 827 826 825 824 823 821 820 819 818 816
698 698 698 698 711 721 718 719 729 743 752 747 736 733 729 716 705 707 713 712 710 712 713 714 717 727 735 739 742 745 748 752 755 758 763 766 769 771 772 776 778 780 783 786 791 795 798 801 803 806 809 811 814 815 816 817 818 818 818 819 820 820 822 823 823 825 826 826 827 828 829 831 831 832 832 832 832 831 831 831 831 831 830 830 830 829 829 828 827 826 825 824 823 822 820 819 818
706 706 705 702 706 713 715 715 715 725 741 746 744 740 726 705 693 698 705 704 704 707 710 712 713 720 728 732 737 742 745 750 753 757 761 765 769 771 773 776 778 780 784 786 790 794 797 801 803 805 808 810 813 814 815 817 817 818 818 819 820 821 822 824 824 826 827 827 828 829 831 832 832 833 833 833 833 832 832 832 832 832 831 831 831 830 830 829 828 827 826 826 824 823 822 821 820
705 709 706 703 709 715 725 730 717 711 721 729 738 742 723 697 688 691 695 697 699 700 705 710 712 718 726 731 735 739 743 747 750 754 759 763 767 771 773 776 778 781 784 786 791 794 797 801 802 805 807 809 812 814 815 817 817 818 819 820 821 822 823 824 825 827 827 828 830 831 832 833 833 834 834 834 834 834 834 834 833 833 833 832 832 831 831 830 829 828 827 827 826 824 823 822 821